sat.trackr.live / text

‹ back to catalog

STARLINK-3271

NORAD 50167 · 2021-125M

PAYLOAD ACTIVE UNKNOWN

§ Identity

Operator
Country
US
Launch date
2021-12-18
Launch site
AFWTR
Launch vehicle
Mass (kg)
RCS (m²)

Purposes: comms

External: N2YO · Heavens-Above · Gunter

§ Orbital elements

Epoch: 2026-09-03T19:18:16.532064Z

Period
93.79 min
Inclination
53.1613°
Eccentricity
0.0001353
Mean motion
15.35412696 rev/d
Perigee alt
458.8 km
Apogee alt
460.6 km
Semi-major
6,837.8 km
B*
-7.0496e-5
RAAN
170.5720°
Arg perigee
85.2864°
Mean anomaly
274.8293°
Rev number
26,346

§ Raw data

STARLINK-32711 50167U 21125M   26246.80435801 -.00002840  00000+0 -70496-4 0  99942 50167  53.1613 170.5720 0001353  85.2864 274.8293 15.35412696263465

JSON: /api/v1/satellites/50167 · /tle

For live sub-satellite position, see the globe view (requires WebGL).

§ Visibility from observer

Set your observer location to see the next 7 days of passes ≥ 10°. The values pass through the URL so the page stays shareable.

No JS? Fill the form by hand. The geolocation button needs JavaScript.